Location: Shepherdstown, WV
(39.4326°N, 77.8042°W)
Time: 16:06:47
(UTC-04:00)

Transit 2A - Pass Details

Date: 13 August 2021
Orbit: 594 x 964 km, 66.7° (Epoch: 20 September)

Event Time Altitude Azimuth Distance (km) Brightness Sun altitude
Exits shadow 02:54:44 11° 95° (E) 1,948 8.3 -31.3°
Drops below altitude 10° 02:55:18 10° 88° (E) 2,000 8.5 -31.3°
Sets 02:59:28 0° 52° (NE) 2,992 10.0 -30.9°
